Home   Weather   Mahajanga   Past weeks
Flag for Madagascar

Past Weather in Mahajanga, Madagascar — Yesterday and Last 2 Weeks

Now
72 °F

Passing clouds.


Feels Like: 72 °F
Forecast: 94 / 72 °F
Wind: 3 mph from South

Location: Majunga

Current Time: May 30, 2020 at 5:53:50 am

Latest Report: May 30, 2020 at 5:00 am


Visibility: N/A

Pressure: 29.95 "Hg

Humidity: 78%

Dew Point: 64 °F

Location of MahajangaLocation

Past Weather in Mahajanga — Graph

°F

Mahajanga Temperature Yesterday

Maximum temperature yesterday: 95 °F (at 2:00 pm)
Minimum temperature yesterday: 64 °F (at 6:00 am)
Average temperature yesterday: 80 °F

High & Low Weather Summary for the Past Weeks

 TemperatureHumidityPressure
High97 °F (May 17, 12:00 pm)100% (May 15, 7:00 am)30.09 "Hg (May 15, 7:00 am)
Low64 °F (May 20, 5:00 am)28% (May 19, 2:00 pm)29.83 "Hg (May 15, 3:00 pm)
Average80 °F63%29.99 "Hg
* Reported May 15 5:00 am — May 30 5:00 am, Mahajanga. Weather by CustomWeather, © 2020

Note: Actual official high and low records may vary slightly from our data, if they occured in-between our weather recording intervals... More about our weather records

Mahajanga Weather History for the Previous 24 Hours

Scroll right to see more
 ConditionsComfort  
Time TempWeatherWind HumidityBarometerVisibility
5:00 am
Sat, May 30
72 °FPassing clouds.3 mph78%29.95 "HgN/A
4:00 am72 °FPassing clouds.5 mph83%29.92 "HgN/A
3:00 am73 °FPassing clouds.3 mph78%29.92 "HgN/A
2:00 am73 °FPassing clouds.3 mph89%29.95 "HgN/A
1:00 am73 °FPassing clouds.3 mph89%29.95 "HgN/A
12:00 am75 °FPassing clouds.5 mph83%29.98 "HgN/A
11:00 pm
Fri, May 29
75 °FPassing clouds.No wind94%29.98 "HgN/A
10:00 pm79 °FPassing clouds.No wind84%29.98 "HgN/A
9:00 pm79 °FPassing clouds.3 mph84%29.98 "HgN/A
8:00 pm79 °FPassing clouds.5 mph84%29.98 "HgN/A
7:00 pm81 °FPassing clouds.5 mph74%29.95 "HgN/A
6:00 pm82 °FPassing clouds.3 mph66%29.92 "HgN/A
5:00 pm90 °FPassing clouds.5 mph43%29.92 "HgN/A
4:00 pm93 °FPassing clouds.8 mph39%29.89 "HgN/A
3:00 pm95 °FPassing clouds.6 mph32%29.89 "HgN/A
2:00 pm95 °FPassing clouds.7 mph36%29.89 "HgN/A
1:00 pm93 °FPassing clouds.8 mph36%29.92 "HgN/A
12:00 pm91 °FPassing clouds.8 mph38%29.95 "HgN/A
11:00 am90 °FPassing clouds.9 mph38%29.98 "HgN/A
10:00 am86 °FPassing clouds.10 mph40%30.01 "HgN/A
9:00 am82 °FPassing clouds.8 mph48%30.01 "HgN/A
8:00 am75 °FPassing clouds.3 mph65%30.01 "HgN/A
7:00 am66 °FSunny.2 mph94%29.98 "Hg10 mi
6:00 am64 °FClear.2 mph94%29.98 "Hg10 mi
5:00 am66 °FClear.5 mph94%29.95 "Hg10 mi
Weather by CustomWeather, © 2020

See weather overview

Advertising